Total_Precipitation_Accumulation
0.16 0.18 0.22 0.22 0.21 0.20 0.19 0.18 0.23 0.28 0.36 0.43 0.44 0.52 0.64 0.69 0.60 0.29 0.12 0.02 0.03 0.06 0.15 0.06 0.03 0.02 0.04 0.13 0.25 0.28 0.31 0.30 0.08 0.01 0.00 0.00 0.00 0.00 0.00 0.00 0.00 0.00 0.00 0.00 0.01
0.15 0.21 0.21 0.22 0.24 0.21 0.22 0.23 0.30 0.35 0.43 0.48 0.57 0.66 0.60 0.58 0.41 0.23 0.02 0.05 0.10 0.30 0.14 0.05 0.04 0.04 0.07 0.19 0.36 0.49 0.46 0.09 0.02 0.01 0.01 0.02 0.00 0.00 0.00 0.00 0.01 0.02 0.02 0.03 0.06
0.17 0.24 0.23 0.26 0.26 0.28 0.28 0.32 0.37 0.35 0.34 0.41 0.53 0.67 0.76 0.69 0.33 0.07 0.02 0.02 0.23 0.48 0.35 0.07 0.08 0.08 0.10 0.19 0.23 0.31 0.26 0.01 0.01 0.03 0.14 0.07 0.01 0.00 0.00 0.00 0.00 0.03 0.07 0.09 0.06
0.22 0.28 0.30 0.26 0.30 0.38 0.35 0.37 0.35 0.28 0.27 0.30 0.34 0.56 0.84 0.70 0.31 0.08 0.02 0.07 0.35 0.74 0.49 0.20 0.13 0.12 0.06 0.07 0.04 0.08 0.05 0.02 0.04 0.09 0.17 0.09 0.02 0.00 0.00 0.00 0.00 0.03 0.09 0.15 0.20
0.31 0.39 0.32 0.31 0.31 0.40 0.39 0.26 0.27 0.23 0.19 0.16 0.30 0.85 0.78 0.55 0.13 0.16 0.10 0.14 0.54 0.91 0.46 0.23 0.12 0.05 0.03 0.02 0.05 0.02 0.04 0.05 0.13 0.07 0.04 0.12 0.10 0.01 0.00 0.00 0.00 0.01 0.04 0.06 0.16
0.37 0.40 0.31 0.34 0.40 0.39 0.24 0.22 0.25 0.26 0.36 0.23 0.46 0.71 0.66 0.32 0.04 0.10 0.12 0.20 0.34 0.73 0.55 0.34 0.16 0.03 0.03 0.03 0.08 0.02 0.06 0.12 0.20 0.10 0.04 0.11 0.11 0.06 0.00 0.00 0.00 0.01 0.03 0.02 0.05
0.45 0.43 0.34 0.43 0.39 0.31 0.21 0.26 0.34 0.28 0.32 0.34 0.56 0.62 0.44 0.10 0.08 0.17 0.12 0.25 0.41 0.58 0.56 0.37 0.21 0.18 0.12 0.10 0.06 0.07 0.15 0.23 0.22 0.22 0.13 0.05 0.18 0.11 0.00 0.00 0.00 0.01 0.02 0.01 0.00
0.49 0.45 0.40 0.47 0.39 0.37 0.33 0.40 0.52 0.60 0.66 0.56 0.66 0.68 0.30 0.02 0.09 0.16 0.22 0.26 0.51 0.94 0.79 0.78 0.34 0.20 0.16 0.14 0.11 0.21 0.28 0.13 0.08 0.18 0.28 0.22 0.15 0.02 0.03 0.00 0.00 0.00 0.00 0.00 0.00
0.53 0.46 0.46 0.54 0.52 0.46 0.46 0.33 0.44 0.45 0.75 0.84 0.83 0.59 0.25 0.15 0.09 0.09 0.23 0.37 0.57 1.27 1.47 1.66 1.19 0.43 0.23 0.22 0.22 0.25 0.09 0.03 0.02 0.06 0.11 0.09 0.03 0.02 0.04 0.01 0.00 0.00 0.00 0.00 0.00
0.52 0.46 0.49 0.49 0.59 0.62 0.66 0.66 0.56 0.57 0.69 1.13 0.92 0.69 0.19 0.22 0.18 0.20 0.30 0.50 0.75 1.44 1.96 2.40 1.93 0.77 0.24 0.25 0.18 0.07 0.05 0.03 0.01 0.02 0.02 0.01 0.00 0.01 0.02 0.02 0.00 0.00 0.00 0.00 0.00
0.56 0.46 0.42 0.52 0.64 0.55 0.78 1.13 0.93 0.94 1.09 0.98 0.43 0.34 0.26 0.40 0.46 0.49 0.53 0.67 1.38 1.92 2.02 2.03 1.32 0.52 0.12 0.06 0.06 0.05 0.08 0.04 0.01 0.01 0.02 0.00 0.01 0.01 0.00 0.02 0.01 0.01 0.00 0.00 0.00
0.48 0.43 0.46 0.54 0.63 0.91 1.21 1.21 0.72 0.62 0.82 0.56 0.13 0.19 0.16 0.37 0.75 0.67 0.80 1.35 1.69 1.97 1.59 1.72 0.75 0.16 0.18 0.09 0.09 0.11 0.12 0.05 0.03 0.03 0.05 0.01 0.00 0.00 0.00 0.00 0.00 0.00 0.00 0.00 0.00
0.38 0.43 0.50 0.66 0.76 1.04 1.03 0.60 0.36 0.74 1.15 0.86 0.35 0.35 0.32 0.41 0.78 0.72 1.13 1.52 1.60 1.32 1.06 1.04 0.33 0.14 0.29 0.25 0.15 0.11 0.14 0.10 0.04 0.06 0.05 0.04 0.01 0.00 0.00 0.00 0.00 0.00 0.00 0.00 0.00
0.45 0.50 0.68 0.93 1.22 0.83 0.73 0.47 0.60 1.08 1.40 1.09 0.74 0.77 0.49 0.93 1.09 0.56 1.61 1.56 1.65 1.09 0.93 1.04 0.43 0.31 0.31 0.49 0.18 0.13 0.07 0.11 0.17 0.15 0.04 0.06 0.03 0.00 0.00 0.00 0.00 0.00 0.00 0.00 0.00
0.83 0.73 0.60 1.10 1.12 0.94 0.68 0.42 0.81 1.47 1.51 0.98 0.88 0.69 0.85 0.85 0.62 0.74 1.23 1.14 1.04 0.87 0.95 0.87 0.45 0.51 0.38 0.46 0.15 0.21 0.07 0.11 0.23 0.35 0.35 0.07 0.09 0.01 0.00 0.00 0.00 0.00 0.00 0.00 0.00
0.92 0.89 0.81 0.85 0.88 0.84 0.77 0.54 1.26 1.54 1.83 1.85 1.41 1.24 0.75 0.52 0.41 0.91 1.18 0.80 0.82 0.76 0.83 0.48 0.39 0.71 0.53 0.37 0.26 0.21 0.25 0.26 0.47 0.48 0.69 0.30 0.07 0.01 0.00 0.00 0.00 0.00 0.00 0.00 0.00
0.87 1.10 1.12 0.67 0.73 0.73 1.24 1.07 1.41 0.98 0.99 1.34 1.10 0.56 0.37 0.46 0.61 0.89 1.09 0.68 0.98 1.18 1.23 1.09 0.85 0.62 0.53 0.61 0.68 0.49 0.62 0.85 0.78 0.93 0.43 0.15 0.16 0.06 0.00 0.00 0.00 0.00 0.00 0.00 0.00
1.09 1.19 1.27 0.91 0.79 0.86 1.70 1.11 0.84 0.55 0.85 0.79 0.40 0.37 0.46 0.35 0.52 0.68 0.88 0.43 0.24 0.38 0.67 0.85 1.05 0.74 0.54 0.56 0.84 0.61 0.58 0.64 0.38 0.29 0.17 0.08 0.26 0.05 0.00 0.00 0.00 0.00 0.00 0.00 0.00
1.36 1.64 1.54 1.36 1.03 1.14 1.34 0.95 0.67 0.78 0.90 0.46 0.30 0.33 0.37 0.16 0.27 0.48 0.40 0.19 0.07 0.13 0.49 0.40 0.46 0.42 0.41 0.29 0.54 0.70 0.65 0.36 0.50 0.18 0.27 0.09 0.08 0.04 0.01 0.00 0.00 0.00 0.00 0.00 0.00
1.79 2.23 1.33 1.12 1.27 1.20 1.09 0.83 0.46 0.38 0.28 0.16 0.24 0.11 0.08 0.06 0.10 0.10 0.13 0.02 0.00 0.01 0.18 0.29 0.46 0.54 0.53 0.49 0.56 0.54 0.32 0.50 1.03 0.61 0.19 0.06 0.02 0.04 0.00 0.00 0.00 0.00 0.00 0.00 0.00
1.87 2.06 1.29 1.18 1.75 1.67 1.35 0.94 0.30 0.17 0.14 0.13 0.05 0.02 0.01 0.01 0.01 0.01 0.01 0.00 0.00 0.00 0.14 0.33 0.56 0.73 0.94 0.68 0.46 0.60 0.58 0.38 0.52 0.43 0.25 0.10 0.02 0.00 0.00 0.01 0.01 0.01 0.00 0.00 0.00
1.68 1.59 1.41 1.61 2.07 1.56 0.99 0.67 0.33 0.16 0.17 0.13 0.10 0.02 0.00 0.00 0.00 0.00 0.00 0.01 0.00 0.02 0.16 0.32 0.66 0.72 0.60 0.16 0.11 0.21 0.24 0.18 0.66 0.43 0.37 0.32 0.13 0.00 0.01 0.01 0.01 0.01 0.01 0.01 0.01
1.51 1.37 2.03 1.11 0.90 0.66 0.38 0.29 0.24 0.10 0.13 0.15 0.07 0.01 0.00 0.00 0.00 0.00 0.00 0.00 0.00 0.02 0.19 0.44 0.99 0.78 0.66 0.47 0.49 0.69 0.33 0.36 0.61 0.98 0.75 0.40 0.17 0.00 0.00 0.00 0.01 0.01 0.02 0.01 0.01
1.51 1.45 2.85 1.92 0.53 0.16 0.29 0.33 0.26 0.06 0.07 0.13 0.10 0.03 0.04 0.02 0.00 0.00 0.00 0.00 0.00 0.00 0.16 0.72 0.80 0.85 0.69 0.62 0.88 0.72 0.34 0.52 1.06 1.13 0.37 0.18 0.07 0.02 0.01 0.01 0.02 0.04 0.04 0.02 0.02
1.02 0.67 0.70 0.82 0.43 0.07 0.27 0.29 0.36 0.23 0.12 0.17 0.11 0.04 0.06 0.02 0.00 0.00 0.00 0.00 0.00 0.00 0.16 0.66 1.15 1.28 0.54 0.32 0.69 0.60 0.31 0.43 0.97 0.55 0.51 0.16 0.06 0.03 0.04 0.05 0.07 0.09 0.08 0.06 0.06
0.64 0.56 0.11 0.04 0.03 0.02 0.17 0.27 0.34 0.34 0.27 0.19 0.13 0.04 0.04 0.05 0.00 0.00 0.00 0.00 0.00 0.01 0.15 0.55 0.95 0.81 0.34 0.20 0.40 0.47 0.23 0.35 0.56 0.41 0.30 0.12 0.11 0.06 0.04 0.06 0.06 0.17 0.11 0.08 0.08
0.62 0.49 0.14 0.06 0.04 0.04 0.06 0.12 0.23 0.37 0.24 0.09 0.08 0.11 0.07 0.03 0.01 0.00 0.00 0.00 0.00 0.01 0.07 0.34 0.63 0.82 0.64 0.41 0.55 0.52 0.26 0.31 0.41 0.35 0.24 0.14 0.12 0.04 0.05 0.12 0.27 0.46 0.11 0.05 0.02